This demonstration page uses our WeatherBlox Daily Observations layout. Learn more.

Left ArrowRight Arrow

39.92423, -83.80882

Hourly Observations for January 26, 2020

Temp ( °F °C ) Dew Point ( °F °C ) Humidity (%) Winds ( mph kmh ) Pressure ( in mb ) Visibility ( mi km ) Precip ( " mm )
12:56 am 00:56 Cloudy 32 0 31 -0.6 96 96 WSW 16 26 29.97 1015 10 16.0934 0 0
1:24 am 01:24 Cloudy 32 0 30 -1 93 93 WSW 14 22 29.98 1015 8 12.87472 0 0
1:56 am 01:56 Cloudy 31 -0.6 31 -0.6 100 100 WSW 15 24 29.97 1015 7 11.26538 0 0
2:56 am 02:56 Cloudy with Light Snow 31 -0.6 31 -0.6 100 100 WSW 18 30 29.97 1015 8 12.87472 0 0
3:56 am 03:56 Cloudy with Light Snow 31 -0.6 31 -0.6 100 100 WSW 16 26 29.97 1015 3 4.82802 0 0
4:10 am 04:10 Cloudy with Light Freezing Rain 30 -1 30 -1 100 100 W 16 26 29.99 1016 4 6.43736 0 0
4:56 am 04:56 Cloudy with Light Freezing Rain 31 -0.6 31 -0.6 100 100 W 16 26 29.97 1015 6 9.65604 0 0
5:16 am 05:16 Cloudy with Light Snow 30 -1 30 -1 100 100 W 15 24 29.99 1016 5 8.0467 0 0
5:56 am 05:56 Cloudy with Light Snow 31 -0.6 31 -0.6 100 100 WSW 14 22 29.97 1015 5 8.0467 0 0
6:27 am 06:27 Cloudy with Light Snow 30 -1 30 -1 100 100 W 13 20 30 1016 2 3.21868 0 0
6:40 am 06:40 Cloudy with Light Freezing Rain 30 -1 30 -1 100 100 W 14 22 30 1016 2.5 4.02335 0 0
6:56 am 06:56 Cloudy with Light Freezing Rain 31 -0.6 31 -0.6 100 100 WSW 17 28 29.98 1015 2 3.21868 0 0
7:14 am 07:14 Cloudy with Light Freezing Rain 30 -1 30 -1 100 100 WSW 15 24 30.01 1016 3 4.82802 0 0
7:42 am 07:42 Cloudy with Light Freezing Rain 30 -1 30 -1 100 100 W 15 24 30.01 1016 2 3.21868 0 0
7:51 am 07:51 Cloudy with Light Freezing Rain 30 -1 30 -1 100 100 W 14 22 30.02 1017 1.5 2.41401 0 0
7:56 am 07:56 Cloudy with Light Freezing Rain 31 -0.6 31 -0.6 100 100 WSW 12 19 29.99 1016 1.5 2.41401 0 0
8:08 am 08:08 Cloudy with Light Freezing Rain 30 -1 30 -1 100 100 W 12 19 30.02 1017 2.5 4.02335 0 0
8:32 am 08:32 Cloudy with Light Freezing Rain 30 -1 30 -1 100 100 WSW 14 22 30.02 1017 1.75 2.816345 0 0
8:44 am 08:44 Cloudy with Light Freezing Rain 30 -1 30 -1 100 100 WSW 14 22 30.02 1017 2 3.21868 0 0
8:56 am 08:56 Cloudy with Light Freezing Rain 31 -0.6 31 -0.6 100 100 WSW 13 20 30 1016 2.5 4.02335 0 0
9:19 am 09:19 Cloudy with Light Freezing Rain 30 -1 30 -1 100 100 WSW 13 20 30.02 1017 3 4.82802 0 0
9:37 am 09:37 Cloudy with Light Freezing Rain 30 -1 30 -1 100 100 WSW 13 20 30.02 1017 5 8.0467 0 0
9:51 am 09:51 Cloudy with Light Wintry Mix 30 -1 30 -1 100 100 WSW 12 19 30.02 1017 5 8.0467 0 0
9:56 am 09:56 Cloudy with Light Wintry Mix 31 -0.6 31 -0.6 100 100 WSW 14 22 30 1016 5 8.0467 0 0
10:56 am 10:56 Cloudy 31 -0.6 31 -0.6 100 100 WSW 13 20 30 1016 8 12.87472 0 0
11:56 am 11:56 Cloudy 32 0 31 -0.6 96 96 WSW 13 20 29.99 1016 10 16.0934 0 0
12:52 pm 12:52 Cloudy 32 0 30 -1 93 93 WSW 15 24 29.98 1015 10 16.0934 0 0
12:56 pm 12:56 Cloudy 32 0 31 -0.6 96 96 WSW 13 20 29.97 1015 10 16.0934 0 0
1:56 pm 13:56 Cloudy 32 0 31 -0.6 96 96 SW 12 19 29.95 1014 10 16.0934 0 0
2:21 pm 14:21 Cloudy 32 0 30 -1 93 93 WSW 16 26 29.96 1015 10 16.0934 0 0
2:52 pm 14:52 Cloudy 34 1 30 -1 87 87 WSW 12 19 29.95 1014 10 16.0934 0 0
2:56 pm 14:56 Cloudy 33 0.6 31 -0.6 92 92 WSW 12 19 29.93 1014 10 16.0934 0 0
3:56 pm 15:56 Cloudy 34 1.1 32 0 92 92 W 9 15 29.94 1014 10 16.0934 0 0
4:56 pm 16:56 Cloudy 34 1.1 33 0.6 97 97 WSW 9 15 29.94 1014 10 16.0934 0 0
5:20 pm 17:20 Cloudy 34 1 32 0 93 93 WSW 10 17 29.96 1015 10 16.0934 0 0
5:56 pm 17:56 Cloudy 34 1.1 33 0.6 97 97 WSW 6 9 29.94 1014 10 16.0934 0 0
6:42 pm 18:42 Cloudy 34 1 34 1 100 100 W 3 6 29.96 1015 10 16.0934 0 0
6:56 pm 18:56 Cloudy 33 0.6 33 0.6 100 100 W 3 6 29.94 1014 10 16.0934 0 0
7:56 pm 19:56 Cloudy 33 0.6 33 0.6 100 100 Calm 29.93 1014 10 16.0934 0 0
8:56 pm 20:56 Cloudy 33 0.6 33 0.6 100 100 S 3 6 29.93 1014 9 14.48406 0 0
9:56 pm 21:56 Cloudy 33 0.6 33 0.6 100 100 SSW 3 6 29.92 1013 10 16.0934 0 0
10:56 pm 22:56 Cloudy 33 0.6 33 0.6 100 100 SW 6 9 29.91 1013 10 16.0934 0 0
11:56 pm 23:56 Cloudy 32 0 32 0 100 100 NW 6 9 29.91 1013 10 16.0934 0 0

Powered by AerisWeather